Location: Maplewood
(44.7475°N, 87.4793°W)
Time: 11:51:43
(UTC+00:00)

Daily predictions for brighter satellites

Satellite Brightness Start Highest point End
(mag) Time Altitude Azimuth Time Altitude Azimuth Time Altitude Azimuth
Cosmos 2221 2.5 12:02:52 10° N 12:07:02 79° E 12:11:09 10° SSE
Cosmos 2266 Rocket 4.3 12:01:47 10° S 12:08:07 74° E 12:14:26 10° NNE
Orbus 7S? 2.6 12:08:50 18° NW 12:10:35 69° NE 12:13:39 10° SE
Cosmos 1125 Rocket 3.7 12:06:51 10° NNW 12:12:08 74° ENE 12:17:20 10° SSE
Cosmos 1484 Rocket 2.8 12:09:15 10° N 12:12:27 39° WNW 12:15:35 10° SW
Cosmos 192 4.3 12:09:03 10° NNW 12:14:00 90° W 12:18:54 10° SSE
Cosmos 1758 Rocket 3.7 12:11:02 10° SSW 12:15:20 51° WNW 12:19:38 10° N
Cosmos 1437 Rocket 2.4 12:17:27 10° N 12:20:55 85° E 12:24:23 10° S
Helios 1A Rocket 4.2 12:23:27 10° SW 12:25:25 15° W 12:26:49 12° WNW
ISS -0.7 12:24:14 10° S 12:26:43 19° SE 12:29:13 10° E
Cosmos 2360 Rocket 2.8 12:23:26 10° NW 12:28:30 35° WSW 12:33:32 10° S
[s.n.66876] 4.5 12:29:12 10° S 12:30:41 14° SSE 12:32:11 10° ESE
[s.n.66874] 4.4 12:29:58 10° S 12:31:29 14° SSE 12:33:00 10° ESE
CZ-2D R/B 2.6 12:28:21 10° N 12:31:32 83° WNW 12:34:42 10° SSW
[s.n.66872] 4.4 12:30:44 10° S 12:32:16 15° SSE 12:33:49 10° ESE
[s.n.66871] 4.4 12:31:16 10° S 12:32:48 15° SSE 12:34:23 10° ESE
[s.n.66870] 4.4 12:32:04 10° SSW 12:33:38 15° SSE 12:35:14 10° ESE
ATLAS 3B R/B 3.5 12:26:04 10° NNW 12:33:50 58° NE 12:41:11 10° SE
[s.n.66869] 4.4 12:32:49 10° SSW 12:34:25 15° SSE 12:36:02 10° ESE
Cosmos 2333 Rocket 3.5 12:30:11 10° NW 12:34:30 22° W 12:38:46 10° SSW
Cosmos 1833 4.5 12:29:48 10° SW 12:35:11 45° WNW 12:40:40 10° NNE
[s.n.66867] 4.4 12:34:12 10° SSW 12:35:50 15° SSE 12:37:28 10° ESE
COSMO-SKYMED 1 4.2 12:34:10 10° WSW 12:36:18 14° W 12:38:25 10° WNW
Cosmos 405 Rocket 3.7 12:34:14 10° WSW 12:36:34 18° WNW 12:38:55 10° NNW
[s.n.66866] 4.4 12:34:56 10° SSW 12:36:34 16° SSE 12:38:14 10° ESE
[s.n.66865] 4.4 12:35:27 10° SSW 12:37:08 16° SSE 12:38:48 10° ESE
Cosmos 1707 2.2 12:34:24 10° NNW 12:37:30 62° W 12:40:35 10° S
[s.n.66860] 4.4 12:36:06 10° SSW 12:37:47 16° SSE 12:39:29 10° ESE
[s.n.66864] 4.4 12:36:43 10° SSW 12:38:24 16° SSE 12:40:07 10° ESE
BREEZE-M DEB (TANK) 3.8 12:36:02 10° WNW 12:38:52 49° NNE 12:46:04 10° E
[s.n.66863] 4.4 12:37:18 10° SSW 12:39:00 16° SSE 12:40:44 10° ESE
[s.n.66861] 4.4 12:38:06 10° SSW 12:39:50 16° SSE 12:41:34 10° ESE
[s.n.66862] 4.4 12:38:44 10° SSW 12:40:28 16° SSE 12:42:14 10° ESE
Cosmos 2237 Rocket 3.8 12:35:44 10° N 12:40:38 29° NE 12:45:31 10° ESE
[s.n.66859] 4.4 12:39:25 10° SSW 12:41:11 17° SSE 12:42:57 10° ESE
SJ-12 3.7 12:37:23 10° N 12:41:12 76° WNW 12:45:00 10° SSW
[s.n.66858] 4.4 12:40:04 10° SSW 12:41:51 17° SSE 12:43:38 10° ESE
[s.n.66857] 4.4 12:40:38 10° SSW 12:42:26 17° SSE 12:44:14 10° ESE
[s.n.66856] 4.4 12:41:11 10° SSW 12:42:59 17° SSE 12:44:47 10° ESE
[s.n.66855] 4.4 12:41:51 10° SSW 12:43:39 17° SSE 12:45:29 10° ESE
MOS 1 Rocket 3.6 12:38:23 10° NNE 12:43:47 87° WNW 12:49:01 10° SSW
Cosmos 2219 Rocket 2.6 12:39:52 10° NW 12:45:12 44° WSW 12:50:29 10° S
ARIANE 5 R/B 2.6 12:42:10 10° NNE 12:47:24 79° WNW 12:52:37 10° SSW
Cosmos 1607 4.0 22:30:27 10° NNW 22:36:40 65° NE 22:42:55 10° SE
SMAP 3.5 22:34:29 10° SE 22:38:47 39° ENE 22:43:07 10° N
Cosmos 1315 Rocket 4.3 22:36:37 10° SW 22:40:09 35° WNW 22:43:42 10° N
Gbstr 26 Del rocket 3.2 22:37:29 10° SW 22:41:39 53° SE 22:45:23 10° ENE
Cosmos 1626 Rocket 3.6 22:38:52 10° N 22:43:12 88° W 22:47:30 10° S
Landsat 7 4.4 22:39:23 10° SE 22:43:32 34° ENE 22:47:44 10° N
CBERS-1 4.0 22:39:19 10° SSE 22:44:25 78° ENE 22:49:33 10° NNW
USA 290 2.2 22:41:25 10° NNW 22:44:39 66° ENE 22:47:53 10° SSE
Cosmos 1484 Rocket 2.5 22:42:31 10° SSE 22:46:02 89° WNW 22:49:32 10° NNW
SL-08 ROCKET BODY 4.4 22:41:12 10° N 22:47:11 80° E 22:53:15 10° S
Meteor 1-20 Rocket 4.3 22:42:58 10° N 22:48:19 53° ENE 22:53:39 10° SSE
Lacrosse 5 rocket 3.2 22:46:23 10° NW 22:48:43 16° NNW 22:51:01 10° NNE
Cosmos 1606 Rocket 4.3 22:46:21 10° SSE 22:50:15 32° E 22:54:12 10° NNE
Cosmos 724 4.3 22:44:46 10° NNW 22:50:50 82° NE 22:56:43 10° SE
NOSS 3-2 (A) 4.1 22:52:39 10° WSW 22:57:27 41° NW 23:03:13 10° NNE
Cosmos 2297 Rocket 2.3 22:52:21 10° NNW 22:58:04 86° WSW 23:03:43 10° SSE
CZ-2D R/B 3.5 22:55:31 10° SE 22:58:18 30° ENE 23:01:06 10° N
NOSS 3-2 (C) 3.1 22:53:59 10° SW 22:58:57 87° NW 23:04:54 10° NE
Cosmos 1544 Rocket 4.1 22:55:05 10° SSW 22:59:27 64° W 23:03:52 10° N
NOSS 2-2 (E) 4.4 22:57:42 10° WSW 23:00:37 27° NW 23:03:17 10° NNE
Lacrosse 4 Rocket 4.0 23:00:23 10° NW 23:00:57 10° NW 23:01:31 10° NNW
Cosmos 2266 Rocket 3.9 22:55:14 10° N 23:01:20 64° E 23:07:19 10° SSE
CZ-4C R/B 3.0 22:54:56 10° NW 23:02:00 76° NE 23:10:44 10° SE
Thor Agena Rocket 3.6 23:02:26 10° SSE 23:07:39 89° ENE 23:12:50 10° NNW
Cosmos 1503 Rocket 4.0 23:02:41 10° SSW 23:07:57 89° WNW 23:13:11 10° NNE
Cosmos 1461 3.2 23:07:13 10° SW 23:11:03 56° NW 23:14:56 10° NNE
Cosmos 1726 Rocket 4.0 23:09:33 10° SSE 23:13:55 43° E 23:18:17 10° NNE
Cosmos 1743 3.3 23:12:52 10° NNW 23:16:02 48° W 23:19:08 10° S
Cosmos 1933 3.1 23:12:26 10° S 23:16:14 67° E 23:20:03 10° NNE
Cosmos 1354 Rocket 4.0 23:12:29 10° SSW 23:17:45 78° ESE 23:23:00 10° NNE
Cosmos 2219 4.1 23:13:23 10° N 23:18:17 28° NE 23:23:10 10° ESE
GEOS 3 Rocket 3.8 23:13:14 10° NE 23:18:37 82° NW 23:23:59 10° SW
Cosmos 1980 Rocket 2.8 23:15:42 10° S 23:20:50 38° ESE 23:25:04 15° NE
Okean 1-7 Rocket 3.5 23:17:14 10° N 23:21:38 85° E 23:25:59 10° S
Cosmos 1602 Rocket 4.0 23:17:53 10° NNW 23:22:14 64° W 23:26:30 10° S
SJ-12 3.6 23:19:58 10° SSE 23:23:42 69° ENE 23:27:29 10° N
Cosmos 1844 Rocket 4.5 23:21:41 10° NNE 23:23:59 12° NE 23:23:59 12° NE
Cosmos-2242 4.1 23:20:58 10° SE 23:24:20 23° E 23:25:43 20° ENE
CORIOLIS 4.4 23:20:30 10° S 23:25:49 73° WSW 23:31:11 10° NNW
YAOGAN 1 3.5 23:23:04 10° ESE 23:26:33 25° ENE 23:30:03 10° NNE
Cosmos 1898 Rocket 4.3 23:24:10 10° SSE 23:28:31 28° E 23:30:53 20° ENE
Meteor 1-5 Rocket 4.1 23:23:27 10° N 23:28:45 58° ENE 23:34:08 10° SSE
Meteor 1-25 Rocket 4.3 23:23:52 10° N 23:29:43 89° E 23:35:28 10° S
SKYMED 2 4.1 23:27:41 14° NNE 23:31:02 37° E 23:35:04 10° SSE
Cosmos 2263 Rocket 2.4 23:27:03 10° NNW 23:32:33 48° ENE 23:38:01 10° SE
Cosmos 2151 4.0 23:28:39 10° NNW 23:32:40 48° W 23:36:40 10° SSW
ERS-1 4.4 23:27:41 10° SSE 23:32:41 79° ENE 23:37:40 10° NNW
SAR-Lupe-4 3.6 23:30:04 10° SSE 23:33:37 81° WSW 23:37:11 10° NNW
SL-16 R/B 3.7 23:28:33 10° N 23:34:21 42° WNW 23:40:06 10° SW
CZ-4 R/B 4.5 23:33:44 10° SSE 23:37:31 47° ENE 23:41:19 10° N
CENTAUR R/B 4.3 23:34:54 10° WNW 23:39:45 22° NNW 23:45:20 10° NNE
Cosmos 372 Rocket 4.3 23:34:57 10° S 23:39:48 44° ESE 23:42:48 21° NE
IRS-1C 4.4 23:37:29 10° S 23:42:47 72° WSW 23:48:07 10° NNW
NOSS 2-3 (C) 2.8 23:40:14 10° SSW 23:43:41 78° SE 23:45:08 33° NE
SAR-Lupe-1 4.4 23:41:09 10° S 23:44:43 69° WSW 23:48:20 10° NNW
Cosmos 1953 Rocket 3.5 23:41:49 10° N 23:46:14 66° E 23:50:39 10° SSE
Cosmos 1937 Rocket 4.2 23:42:27 10° SSE 23:46:55 30° E 23:47:52 28° E
Cosmos 2227 Rocket 2.3 23:43:51 10° NNW 23:49:31 78° WSW 23:55:08 10° SSE
BREEZE-M DEB (TANK) 1.7 23:49:03 10° W 23:50:43 45° NNW 23:50:43 45° NNW
MOS 1 Rocket 3.6 23:47:03 10° S 23:51:56 75° WSW 23:57:09 10° NNW
Meteor 2-20 Rocket 4.5 23:47:47 10° SSE 23:53:51 55° E 23:59:43 10° NNE
Cosmos 990 Rocket 4.4 23:48:59 10° SSW 23:54:03 61° WNW 23:59:03 11° NNE
Cosmos 1825 Rocket 4.2 23:51:04 10° NNW 23:55:19 57° W 23:59:31 10° S
